| time (UTC) | temp C | wind direction | speed KPH | gust KPH | rain 1hr cm | rain 24hr cm | rain mn cm | humidity % | barometer mb |
| 20260502130239 | 18 | 225 | 0.0 | 0.0 | 0.00 | 0.00 | 0.00 | 55 | 1014.0 |
| 20260502123239 | 19 | 225 | 0.0 | 0.0 | 0.00 | 0.00 | 0.00 | 52 | 1013.0 |
| 20260502122239 | 19 | 225 | 0.0 | 0.0 | 0.00 | 0.00 | 0.00 | 51 | 1013.0 |
| 20260502121240 | 19 | 225 | 0.0 | 0.0 | 0.00 | 0.00 | 0.00 | 51 | 1013.0 |
| 20260502120238 | 20 | 225 | 0.0 | 0.0 | 0.00 | 0.00 | 0.00 | 50 | 1013.0 |
| 20260502115238 | 20 | 225 | 0.0 | 0.0 | 0.00 | 0.00 | 0.00 | 50 | 1013.0 |
| 20260502114239 | 20 | 225 | 0.0 | 0.0 | 0.00 | 0.00 | 0.00 | 49 | 1013.0 |
| 20260502113239 | 20 | 225 | 0.0 | 0.0 | 0.00 | 0.00 | 0.00 | 48 | 1013.0 |
| 20260502112239 | 20 | 225 | 0.0 | 0.0 | 0.00 | 0.00 | 0.00 | 47 | 1012.0 |
| 20260502111239 | 21 | 225 | 0.0 | 0.0 | 0.00 | 0.00 | 0.00 | 45 | 1011.0 |
| 20260502110239 | 21 | 225 | 0.0 | 0.0 | 0.00 | 0.00 | 0.00 | 42 | 1011.0 |
| 20260502105239 | 21 | 225 | 0.0 | 0.0 | 0.00 | 0.00 | 0.00 | 39 | 1011.0 |
| 20260502104238 | 21 | 225 | 0.0 | 0.0 | 0.00 | 0.00 | 0.00 | 38 | 1011.0 |
| 20260502103238 | 21 | 259 | 0.0 | 0.0 | 0.00 | 0.00 | 0.00 | 37 | 1011.0 |
| 20260502102238 | 22 | 180 | 0.0 | 0.0 | 0.00 | 0.00 | 0.00 | 36 | 1011.0 |
| 20260502101238 | 22 | 158 | 0.0 | 0.0 | 0.00 | 0.00 | 0.00 | 36 | 1011.0 |
| 20260502100239 | 22 | 202 | 0.0 | 0.0 | 0.00 | 0.00 | 0.00 | 35 | 1011.0 |
| 20260502091238 | 24 | 225 | 0.0 | 0.0 | 0.00 | 0.00 | 0.00 | 31 | 1009.0 |
| 20260502090238 | 24 | 179 | 1.6 | 3.2 | 0.00 | 0.00 | 0.00 | 30 | 1009.0 |
| 20260502071239 | 26 | 216 | 3.2 | 4.8 | 0.00 | 0.10 | 0.00 | 30 | 1009.0 |
| 20260502070239 | 26 | 199 | 1.6 | 3.2 | 0.00 | 0.10 | 0.00 | 30 | 1009.0 |
| 20260502065239 | 26 | 63 | 4.8 | 4.8 | 0.00 | 0.10 | 0.00 | 30 | 1009.0 |
| 20260502064239 | 26 | 230 | 4.8 | 4.8 | 0.00 | 0.10 | 0.00 | 30 | 1009.0 |
| 20260502063238 | 27 | 203 | 4.8 | 9.7 | 0.00 | 0.10 | 0.00 | 30 | 1009.0 |
| 20260502062239 | 27 | 224 | 8.0 | 9.7 | 0.00 | 0.10 | 0.00 | 30 | 1008.0 |
| 20260502061239 | 27 | 212 | 4.8 | 8.0 | 0.00 | 0.10 | 0.00 | 30 | 1007.0 |
| 20260502060239 | 27 | 203 | 8.0 | 9.7 | 0.00 | 0.10 | 0.00 | 30 | 1007.0 |
| 20260502055239 | 27 | 153 | 8.0 | 9.7 | 0.00 | 0.10 | 0.00 | 31 | 1007.0 |
| 20260502054239 | 28 | 131 | 8.0 | 8.0 | 0.00 | 0.10 | 0.00 | 31 | 1006.0 |
| 20260502053239 | 28 | 174 | 4.8 | 8.0 | 0.00 | 0.10 | 0.00 | 31 | 1006.0 |
| 20260502052239 | 29 | 176 | 4.8 | 9.7 | 0.00 | 0.10 | 0.00 | 31 | 1007.0 |
| 20260502051239 | 30 | 184 | 8.0 | 11.3 | 0.00 | 0.10 | 0.00 | 31 | 1006.0 |
| 20260502050238 | 30 | 263 | 1.6 | 3.2 | 0.00 | 0.10 | 0.00 | 31 | 1006.0 |
| 20260502045238 | 30 | 107 | 4.8 | 8.0 | 0.00 | 0.10 | 0.00 | 32 | 1007.0 |
| 20260502044238 | 31 | 108 | 8.0 | 9.7 | 0.00 | 0.10 | 0.00 | 31 | 1006.0 |
| 20260502043238 | 31 | 190 | 1.6 | 4.8 | 0.00 | 0.10 | 0.00 | 29 | 1006.0 |
| 20260502042238 | 30 | 200 | 4.8 | 8.0 | 0.00 | 0.10 | 0.00 | 29 | 1006.0 |
| 20260502041238 | 30 | 177 | 4.8 | 9.7 | 0.00 | 0.10 | 0.00 | 30 | 1006.0 |
| 20260502040239 | 30 | 152 | 8.0 | 11.3 | 0.00 | 0.10 | 0.00 | 31 | 1006.0 |
| 20260502035239 | 31 | 190 | 4.8 | 8.0 | 0.00 | 0.10 | 0.00 | 32 | 1006.0 |
| 20260502034239 | 32 | 208 | 4.8 | 11.3 | 0.00 | 0.10 | 0.00 | 30 | 1006.0 |
| 20260502033238 | 32 | 206 | 3.2 | 4.8 | 0.00 | 0.10 | 0.00 | 28 | 1006.0 |
| 20260502032238 | 32 | 237 | 1.6 | 4.8 | 0.00 | 0.10 | 0.00 | 28 | 1006.0 |
| 20260502031238 | 31 | 51 | 1.6 | 3.2 | 0.00 | 0.10 | 0.00 | 29 | 1006.0 |
| 20260502030238 | 31 | 224 | 3.2 | 4.8 | 0.00 | 0.10 | 0.00 | 31 | 1006.0 |
| 20260502025238 | 30 | 201 | 8.0 | 9.7 | 0.00 | 0.33 | 0.00 | 32 | 1006.0 |
| 20260502024238 | 30 | 185 | 4.8 | 11.3 | 0.00 | 0.33 | 0.00 | 32 | 1005.0 |
| 20260502023240 | 30 | 231 | 3.2 | 8.0 | 0.00 | 0.53 | 0.00 | 36 | 1005.0 |
| 20260502022240 | 30 | 179 | 8.0 | 9.7 | 0.00 | 0.53 | 0.00 | 38 | 1005.0 |
| 20260502021239 | 30 | 218 | 4.8 | 8.0 | 0.00 | 0.53 | 0.00 | 37 | 1005.0 |
| 20260502020239 | 31 | 173 | 4.8 | 9.7 | 0.00 | 0.53 | 0.00 | 29 | 1005.0 |
| 20260502015239 | 31 | 105 | 3.2 | 4.8 | 0.00 | 0.53 | 0.00 | 29 | 1005.0 |
| 20260502014239 | 30 | 207 | 4.8 | 4.8 | 0.00 | 0.53 | 0.00 | 31 | 1005.0 |
| 20260502013238 | 30 | 213 | 4.8 | 9.7 | 0.00 | 0.76 | 0.00 | 33 | 1005.0 |
| 20260502012239 | 29 | 212 | 4.8 | 8.0 | 0.00 | 0.86 | 0.00 | 36 | 1006.0 |
| 20260502011239 | 28 | 176 | 4.8 | 9.7 | 0.00 | 0.86 | 0.00 | 39 | 1006.0 |
| 20260502010238 | 28 | 201 | 4.8 | 9.7 | 0.00 | 0.86 | 0.00 | 41 | 1006.0 |
| 20260502005239 | 28 | 172 | 4.8 | 8.0 | 0.00 | 0.86 | 0.00 | 43 | 1005.0 |
| 20260502004238 | 27 | 123 | 8.0 | 12.9 | 0.00 | 1.07 | 0.00 | 44 | 1005.0 |
| 20260502003238 | 27 | 199 | 4.8 | 8.0 | 0.00 | 1.07 | 0.00 | 45 | 1005.0 |
| 20260502002238 | 27 | 138 | 3.2 | 8.0 | 0.00 | 1.27 | 0.00 | 46 | 1006.0 |
| 20260502001238 | 26 | 197 | 4.8 | 9.7 | 0.00 | 1.60 | 0.00 | 46 | 1006.0 |
| 20260502000240 | 26 | 203 | 3.2 | 8.0 | 0.00 | 1.93 | 0.00 | 47 | 1006.0 |
| 20260501235240 | 26 | 224 | 3.2 | 4.8 | 0.00 | 2.36 | 0.00 | 46 | 1006.0 |
| 20260501234240 | 25 | 182 | 3.2 | 4.8 | 0.00 | 2.46 | 0.00 | 47 | 1006.0 |
| 20260501233239 | 25 | 119 | 4.8 | 8.0 | 0.00 | 2.77 | 0.00 | 47 | 1006.0 |
| 20260501232239 | 25 | 173 | 3.2 | 8.0 | 0.00 | 3.20 | 0.00 | 48 | 1006.0 |
| 20260501231239 | 25 | 106 | 1.6 | 3.2 | 0.00 | 3.30 | 0.00 | 49 | 1006.0 |
| 20260501230239 | 24 | 224 | 4.8 | 4.8 | 0.00 | 3.40 | 0.00 | 49 | 1006.0 |
| 20260501225239 | 23 | 194 | 1.6 | 3.2 | 0.00 | 3.63 | 0.00 | 54 | 1005.0 |
| 20260501224239 | 22 | 234 | 1.6 | 3.2 | 0.00 | 3.84 | 0.00 | 55 | 1005.0 |
| 20260501223239 | 21 | 202 | 3.2 | 4.8 | 0.00 | 3.94 | 0.00 | 59 | 1005.0 |
| 20260501222239 | 19 | 37 | 3.2 | 3.2 | 0.00 | 4.14 | 0.00 | 62 | 1005.0 |
| 20260501221239 | 18 | 227 | 1.6 | 3.2 | 0.00 | 4.14 | 0.00 | 64 | 1004.0 |
| 20260501220239 | 17 | 234 | 0.0 | 1.6 | 0.00 | 4.27 | 0.00 | 65 | 1004.0 |
| 20260501215238 | 17 | 45 | 0.0 | 0.0 | 0.00 | 4.27 | 0.00 | 65 | 1005.0 |
| 20260501214238 | 17 | 66 | 3.2 | 4.8 | 0.00 | 4.47 | 0.00 | 65 | 1004.0 |
| 20260501213238 | 16 | 268 | 1.6 | 3.2 | 0.00 | 4.57 | 0.00 | 67 | 1004.0 |
| 20260501212238 | 16 | 57 | 3.2 | 4.8 | 0.00 | 4.78 | 0.00 | 67 | 1004.0 |
| 20260501211238 | 16 | 337 | 1.6 | 3.2 | 0.00 | 4.90 | 0.00 | 68 | 1003.0 |
| 20260501210238 | 16 | 65 | 1.6 | 1.6 | 0.00 | 4.90 | 0.00 | 69 | 1003.0 |
| 20260501205238 | 15 | 48 | 3.2 | 4.8 | 0.00 | 4.90 | 0.00 | 70 | 1003.0 |
| 20260501204238 | 15 | 45 | 0.0 | 0.0 | 0.00 | 4.90 | 0.00 | 71 | 1003.0 |
| 20260501203238 | 15 | 51 | 1.6 | 3.2 | 0.00 | 4.90 | 0.00 | 71 | 1003.0 |
| 20260501202238 | 15 | 31 | 1.6 | 1.6 | 0.00 | 4.90 | 0.00 | 75 | 1003.0 |
| 20260501201238 | 13 | 44 | 1.6 | 3.2 | 0.00 | 4.90 | 0.00 | 82 | 1002.0 |
| 20260501200239 | 12 | 45 | 0.0 | 1.6 | 0.00 | 4.90 | 0.00 | 86 | 1002.0 |
| 20260501195240 | 12 | 291 | 0.0 | 0.0 | 0.00 | 5.00 | 0.00 | 86 | 1002.0 |
| 20260501194240 | 12 | 155 | 0.0 | 0.0 | 0.00 | 5.00 | 0.00 | 84 | 1002.0 |
| 20260501193239 | 13 | 112 | 0.0 | 0.0 | 0.00 | 5.13 | 0.00 | 84 | 1002.0 |
| 20260501192239 | 13 | 234 | 0.0 | 3.2 | 0.00 | 5.13 | 0.00 | 84 | 1001.0 |
| 20260501191239 | 13 | 222 | 3.2 | 4.8 | 0.00 | 5.33 | 0.00 | 84 | 1002.0 |
| 20260501190239 | 13 | 205 | 0.0 | 0.0 | 0.00 | 5.33 | 0.00 | 84 | 1002.0 |
| 20260501185239 | 13 | 43 | 0.0 | 3.2 | 0.00 | 5.33 | 0.00 | 83 | 1000.0 |
| 20260501184239 | 13 | 241 | 1.6 | 3.2 | 0.00 | 5.41 | 0.00 | 83 | 1001.0 |
| 20260501183239 | 13 | 77 | 0.0 | 0.0 | 0.00 | 5.41 | 0.00 | 83 | 1001.0 |
| 20260501182239 | 13 | 201 | 0.0 | 4.8 | 0.00 | 5.41 | 0.00 | 82 | 998.0 |
| 20260501181238 | 13 | 236 | 1.6 | 3.2 | 0.00 | 5.41 | 0.00 | 82 | 999.0 |
| 20260501180238 | 13 | 172 | 3.2 | 3.2 | 0.00 | 5.54 | 0.00 | 82 | 999.0 |
| 20260501175238 | 13 | 234 | 3.2 | 3.2 | 0.00 | 5.54 | 0.00 | 82 | 999.0 |
| 20260501174238 | 14 | 238 | 3.2 | 4.8 | 0.00 | 5.54 | 0.00 | 81 | 999.0 |
| 20260501173238 | 14 | 191 | 3.2 | 4.8 | 0.00 | 5.54 | 0.00 | 81 | 999.0 |
| 20260501172238 | 14 | 216 | 3.2 | 8.0 | 0.00 | 5.54 | 0.00 | 81 | 998.0 |
| 20260501171238 | 14 | 205 | 4.8 | 9.7 | 0.00 | 5.54 | 0.00 | 81 | 997.0 |
| 20260501170239 | 14 | 195 | 3.2 | 4.8 | 0.00 | 5.54 | 0.00 | 81 | 997.0 |
| 20260501165239 | 14 | 261 | 4.8 | 9.7 | 0.00 | 5.54 | 0.00 | 81 | 997.0 |
| 20260501164239 | 14 | 164 | 3.2 | 4.8 | 0.00 | 5.54 | 0.00 | 82 | 997.0 |
| 20260501163239 | 14 | 213 | 3.2 | 8.0 | 0.00 | 5.54 | 0.00 | 83 | 997.0 |
| 20260501162239 | 14 | 182 | 1.6 | 1.6 | 0.00 | 5.64 | 0.00 | 84 | 998.0 |
| 20260501161238 | 13 | 163 | 1.6 | 3.2 | 0.00 | 5.64 | 0.00 | 87 | 998.0 |
| 20260501160238 | 13 | 201 | 3.2 | 4.8 | 0.00 | 5.64 | 0.00 | 90 | 998.0 |
| 20260501155238 | 13 | 188 | 1.6 | 3.2 | 0.00 | 5.64 | 0.00 | 92 | 998.0 |
| 20260501154238 | 12 | 90 | 0.0 | 0.0 | 0.00 | 5.64 | 0.00 | 90 | 997.0 |
| 20260501153238 | 13 | 90 | 0.0 | 0.0 | 0.00 | 5.64 | 0.00 | 90 | 997.0 |
| 20260501152238 | 13 | 202 | 0.0 | 0.0 | 0.00 | 5.64 | 0.00 | 89 | 997.0 |
| 20260501151238 | 13 | 202 | 0.0 | 0.0 | 0.00 | 5.64 | 0.00 | 88 | 998.0 |
| 20260501150238 | 13 | 202 | 0.0 | 0.0 | 0.00 | 5.64 | 0.00 | 88 | 998.0 |
| 20260501145238 | 13 | 202 | 0.0 | 0.0 | 0.00 | 5.64 | 5.64 | 88 | 997.0 |
| 20260501144238 | 13 | 225 | 0.0 | 0.0 | 0.00 | 5.64 | 5.64 | 87 | 997.0 |
| 20260501143239 | 14 | 112 | 0.0 | 0.0 | 0.00 | 5.64 | 5.64 | 87 | 997.0 |